Location: Unspecified
(40.4667°N, 0.0000°E)
Time: 13:12:51
(UTC+00:00)

ISS - Pass Details

Date: 24 May 2019
Orbit: 407 x 418 km, 51.6° (Epoch: 24 June)

Event Time Altitude Azimuth Distance (km) Brightness Sun altitude
Rises 20:31:01 0° 284° (WNW) 2,348 1.3 -12.2°
Reaches altitude 10° 20:33:46 10° 309° (NW) 1,491 0.6 -12.6°
Maximum altitude 20:35:49 15° 347° (NNW) 1,219 -0.6 -12.9°
Drops below altitude 10° 20:37:52 10° 25° (NNE) 1,497 -0.7 -13.2°
Sets 20:40:39 0° 49° (NE) 2,365 0.0 -13.6°
